{"data":{"norad_id":55791,"intl_designator":"2023-028BC","name":"STARLINK-5807","alt_names":[],"object_type":"PAYLOAD","status":"ACTIVE","operator":null,"country":"US","launch_date":"2023-03-03","launch_site_code":"AFWTR","launch_vehicle":null,"mission":null,"orbit_class":"UNKNOWN","rcs_meters":null,"size_class":null,"mass_kg":null,"dimensions":null,"purposes":["comms"],"wikipedia_slug":null,"has_3d_model":false,"image_url":null,"decayed_at":null,"tle_current":{"epoch":"2026-09-20T22:00:03.000096Z","epoch_age_seconds":67148,"freshness":"FRESH","line1":"1 55791U 23028BC  26263.91670139  .00082149  00000+0  56844-2 0  9999","line2":"2 55791  70.0011  72.2180 0005503 264.4208 306.5263 15.05208983  5761","mean_motion":15.05208983,"eccentricity":0.0005503,"inclination_deg":70.0011,"raan_deg":72.218,"arg_perigee_deg":264.4208,"mean_anomaly_deg":306.5263,"bstar":0.0056844,"rev_number":576,"period_min":95.667778777799,"perigee_km":547.05123085516,"apogee_km":554.67728964219,"semimajor_km":6929.0012602487,"source":"CELESTRAK","updated_at":"2026-09-21T09:00:33.321677Z"}}}